EWG74C EDDF-LOWI

Flight info

Callsign EWG74C
Flight time 0h 40m
Altitude 23000
Route CINDY8S/18 CINDY Z74 LAMPU Z54 NOMBO Y161 MANAL M736 TULSI TULSI3A
Aircraft A320/M-SDE3FGHIRWY/LB1

Departure

Time 2026-04-14 16:38
Airport Frankfurt Main Airport (EDDF)

Arrival

Time 2026-04-14 17:18
Airport Innsbruck Airport (LOWI)
Time Latitude Longitude Altitude Speed Heading
2026-04-14 15:51 50.04743 8.58176 368 ft 0 kts 159°
2026-04-14 16:19 50.04756 8.58168 363 ft 4 kts 159°
2026-04-14 16:20 50.04781 8.58154 362 ft 4 kts 160°
2026-04-14 16:20 50.04806 8.58145 363 ft 4 kts 188°
2026-04-14 16:20 50.04827 8.58160 359 ft 4 kts 241°
2026-04-14 16:20 50.04835 8.58187 359 ft 2 kts 249°
2026-04-14 16:21 50.04835 8.58189 359 ft 0 kts 249°
2026-04-14 16:23 50.04834 8.58183 359 ft 3 kts 249°
2026-04-14 16:24 50.04820 8.58123 358 ft 7 kts 250°
2026-04-14 16:24 50.04802 8.58051 358 ft 7 kts 250°
2026-04-14 16:24 50.04781 8.57989 358 ft 6 kts 229°
2026-04-14 16:24 50.04748 8.57957 362 ft 7 kts 200°
2026-04-14 16:25 50.04698 8.57965 360 ft 7 kts 158°
2026-04-14 16:25 50.04659 8.57988 363 ft 5 kts 159°
2026-04-14 16:25 50.04625 8.58008 362 ft 10 kts 159°
2026-04-14 16:25 50.04569 8.58038 362 ft 5 kts 170°
2026-04-14 16:26 50.04546 8.58025 366 ft 3 kts 219°
2026-04-14 16:26 50.04537 8.57993 365 ft 3 kts 249°
2026-04-14 16:26 50.04527 8.57954 367 ft 5 kts 249°
2026-04-14 16:26 50.04520 8.57924 366 ft 0 kts 250°
2026-04-14 16:27 50.04516 8.57909 364 ft 3 kts 250°
2026-04-14 16:28 50.04512 8.57891 368 ft 5 kts 250°
2026-04-14 16:28 50.04489 8.57794 364 ft 10 kts 249°
2026-04-14 16:28 50.04454 8.57647 366 ft 20 kts 250°
2026-04-14 16:28 50.04401 8.57426 361 ft 23 kts 250°
2026-04-14 16:29 50.04343 8.57185 361 ft 25 kts 249°
2026-04-14 16:29 50.04281 8.56923 362 ft 27 kts 250°
2026-04-14 16:29 50.04214 8.56643 357 ft 29 kts 250°
2026-04-14 16:29 50.04158 8.56409 358 ft 17 kts 250°
2026-04-14 16:30 50.04117 8.56237 355 ft 17 kts 250°
2026-04-14 16:30 50.04066 8.56023 358 ft 26 kts 249°
2026-04-14 16:30 50.04000 8.55750 351 ft 28 kts 249°
2026-04-14 16:30 50.03930 8.55455 355 ft 29 kts 249°
2026-04-14 16:31 50.03857 8.55149 351 ft 31 kts 250°
2026-04-14 16:31 50.03781 8.54828 349 ft 29 kts 250°
2026-04-14 16:31 50.03707 8.54522 348 ft 30 kts 250°
2026-04-14 16:31 50.03637 8.54232 343 ft 23 kts 249°
2026-04-14 16:32 50.03602 8.54082 349 ft 8 kts 250°
2026-04-14 16:32 50.03589 8.54028 347 ft 5 kts 250°
2026-04-14 16:32 50.03564 8.53922 337 ft 12 kts 250°
2026-04-14 16:32 50.03534 8.53799 337 ft 13 kts 250°
2026-04-14 16:33 50.03505 8.53674 337 ft 12 kts 249°
2026-04-14 16:33 50.03471 8.53536 335 ft 17 kts 249°
2026-04-14 16:33 50.03432 8.53373 335 ft 15 kts 249°
2026-04-14 16:33 50.03396 8.53221 336 ft 15 kts 250°
2026-04-14 16:34 50.03361 8.53076 332 ft 14 kts 250°
2026-04-14 16:34 50.03329 8.52939 332 ft 13 kts 249°
2026-04-14 16:34 50.03299 8.52814 332 ft 11 kts 250°
2026-04-14 16:34 50.03287 8.52763 332 ft 0 kts 250°
2026-04-14 16:35 50.03286 8.52763 332 ft 0 kts 250°
2026-04-14 16:36 50.03274 8.52707 331 ft 9 kts 250°
2026-04-14 16:36 50.03256 8.52634 332 ft 6 kts 250°
2026-04-14 16:36 50.03236 8.52591 334 ft 4 kts 208°
2026-04-14 16:36 50.03221 8.52590 332 ft 1 kts 175°
2026-04-14 16:37 50.03189 8.52594 334 ft 15 kts 177°
2026-04-14 16:37 50.02815 8.52598 335 ft 91 kts 179°
2026-04-14 16:37 50.01967 8.52609 331 ft 150 kts 179°
2026-04-14 16:37 50.00790 8.52619 566 ft 176 kts 178°
2026-04-14 16:38 49.99547 8.52598 1177 ft 183 kts 181°
2026-04-14 16:38 49.98235 8.52575 1741 ft 196 kts 180°
2026-04-14 16:38 49.96826 8.52889 2090 ft 216 kts 155°
2026-04-14 16:38 49.95652 8.54392 2529 ft 229 kts 121°
2026-04-14 16:39 49.94853 8.56575 3251 ft 234 kts 115°
2026-04-14 16:39 49.94152 8.58846 4185 ft 233 kts 107°
2026-04-14 16:39 49.93892 8.61307 5040 ft 234 kts 86°
2026-04-14 16:39 49.93914 8.63916 5613 ft 251 kts 88°
2026-04-14 16:40 49.93717 8.66699 6232 ft 270 kts 105°
2026-04-14 16:40 49.92877 8.69332 7122 ft 274 kts 117°
2026-04-14 16:40 49.91937 8.71926 7964 ft 278 kts 118°
2026-04-14 16:40 49.90972 8.74565 8787 ft 283 kts 120°
2026-04-14 16:41 49.89991 8.77245 9644 ft 287 kts 121°
2026-04-14 16:41 49.88994 8.79958 10420 ft 294 kts 121°
2026-04-14 16:41 49.87937 8.82817 10705 ft 317 kts 121°
2026-04-14 16:41 49.86819 8.85848 10984 ft 338 kts 121°
2026-04-14 16:42 49.85641 8.89058 11593 ft 346 kts 121°
2026-04-14 16:42 49.84440 8.92335 12311 ft 351 kts 121°
2026-04-14 16:42 49.83231 8.95631 13045 ft 355 kts 121°
2026-04-14 16:42 49.81999 8.98979 13762 ft 360 kts 120°
2026-04-14 16:43 49.80749 9.02372 14405 ft 365 kts 121°
2026-04-14 16:43 49.79482 9.05797 15054 ft 368 kts 120°
2026-04-14 16:43 49.78197 9.09257 15696 ft 372 kts 121°
2026-04-14 16:43 49.76906 9.12735 16363 ft 375 kts 120°
2026-04-14 16:44 49.75603 9.16250 16983 ft 378 kts 121°
2026-04-14 16:44 49.74153 9.19666 17595 ft 381 kts 130°
2026-04-14 16:44 49.72419 9.22780 18229 ft 384 kts 132°
2026-04-14 16:45 49.68876 9.29037 19382 ft 390 kts 132°
2026-04-14 16:45 49.67104 9.32155 19956 ft 392 kts 132°
2026-04-14 16:45 49.65297 9.35328 20515 ft 395 kts 133°
2026-04-14 16:45 49.63475 9.38525 20979 ft 397 kts 133°
2026-04-14 16:46 49.61475 9.41472 21444 ft 399 kts 143°
2026-04-14 16:46 49.59182 9.43877 21991 ft 400 kts 151°
2026-04-14 16:46 49.56780 9.46075 22528 ft 403 kts 152°
2026-04-14 16:46 49.54366 9.48278 22935 ft 404 kts 152°
2026-04-14 16:47 49.51943 9.50487 23154 ft 405 kts 152°
2026-04-14 16:47 49.49516 9.52703 23189 ft 406 kts 152°
2026-04-14 16:47 49.47086 9.54919 23189 ft 405 kts 152°
2026-04-14 16:47 49.44662 9.57129 23191 ft 405 kts 152°
2026-04-14 16:48 49.42236 9.59341 23190 ft 405 kts 152°
2026-04-14 16:48 49.39806 9.61554 23195 ft 405 kts 152°
2026-04-14 16:48 49.37378 9.63758 23190 ft 406 kts 152°
2026-04-14 16:48 49.34964 9.65994 23190 ft 407 kts 148°
2026-04-14 16:49 49.32753 9.68715 23190 ft 409 kts 138°
2026-04-14 16:49 49.30675 9.71694 23191 ft 407 kts 146°
2026-04-14 16:49 49.28208 9.73729 23195 ft 402 kts 163°
2026-04-14 16:49 49.25522 9.74864 23195 ft 400 kts 167°
2026-04-14 16:50 49.22826 9.75946 23195 ft 401 kts 167°
2026-04-14 16:50 49.20131 9.77040 23220 ft 401 kts 167°
2026-04-14 16:50 49.17436 9.78141 23212 ft 401 kts 167°
2026-04-14 16:50 49.14736 9.79243 23205 ft 402 kts 167°
2026-04-14 16:51 49.12065 9.80335 23208 ft 402 kts 167°
2026-04-14 16:51 49.09365 9.81440 23200 ft 402 kts 167°
2026-04-14 16:51 49.06657 9.82546 23196 ft 403 kts 167°
2026-04-14 16:51 49.03946 9.83646 23198 ft 404 kts 167°
2026-04-14 16:52 49.01229 9.84741 23193 ft 404 kts 167°
2026-04-14 16:52 48.98507 9.85836 23197 ft 404 kts 167°
2026-04-14 16:52 48.95779 9.86933 23196 ft 404 kts 167°
2026-04-14 16:52 48.93061 9.88032 23195 ft 405 kts 167°
2026-04-14 16:53 48.90337 9.89140 23194 ft 405 kts 167°
2026-04-14 16:53 48.87613 9.90247 23190 ft 405 kts 167°
2026-04-14 16:53 48.84889 9.91348 23185 ft 405 kts 167°
2026-04-14 16:53 48.82163 9.92446 23183 ft 406 kts 167°
2026-04-14 16:54 48.79434 9.93542 23180 ft 406 kts 167°
2026-04-14 16:54 48.76741 9.94622 23181 ft 406 kts 167°
2026-04-14 16:54 48.74007 9.95716 23184 ft 406 kts 167°
2026-04-14 16:54 48.71268 9.96811 23188 ft 406 kts 167°
2026-04-14 16:55 48.68533 9.97903 23189 ft 407 kts 167°
2026-04-14 16:55 48.65800 9.98995 23194 ft 407 kts 167°
2026-04-14 16:55 48.63062 10.00088 23190 ft 407 kts 167°
2026-04-14 16:55 48.60323 10.01179 23186 ft 407 kts 167°
2026-04-14 16:56 48.57580 10.02270 23183 ft 407 kts 166°
2026-04-14 16:56 48.54838 10.03362 23183 ft 408 kts 166°
2026-04-14 16:56 48.52093 10.04456 23186 ft 408 kts 166°
2026-04-14 16:56 48.49350 10.05550 23185 ft 408 kts 166°
2026-04-14 16:57 48.46602 10.06643 23192 ft 408 kts 166°
2026-04-14 16:57 48.43853 10.07732 23191 ft 408 kts 166°
2026-04-14 16:57 48.41106 10.08817 23191 ft 409 kts 166°
2026-04-14 16:57 48.38345 10.09907 23194 ft 409 kts 166°
2026-04-14 16:58 48.35628 10.10978 23193 ft 409 kts 166°
2026-04-14 16:58 48.32878 10.12060 23194 ft 409 kts 166°
2026-04-14 16:58 48.30127 10.13138 23197 ft 409 kts 167°
2026-04-14 16:58 48.27375 10.14218 23197 ft 409 kts 166°
2026-04-14 16:59 48.24622 10.15302 23197 ft 409 kts 166°
2026-04-14 16:59 48.21870 10.16386 23200 ft 409 kts 166°
2026-04-14 16:59 48.19119 10.17467 23195 ft 409 kts 167°
2026-04-14 16:59 48.16367 10.18548 23199 ft 409 kts 166°
2026-04-14 17:00 48.13616 10.19626 23196 ft 409 kts 166°
2026-04-14 17:00 48.10865 10.20701 23200 ft 408 kts 167°
2026-04-14 17:00 48.08117 10.21775 23204 ft 408 kts 166°
2026-04-14 17:00 48.05364 10.22848 23201 ft 408 kts 166°
2026-04-14 17:01 48.02614 10.23912 23206 ft 408 kts 167°
2026-04-14 17:01 47.99888 10.24970 22996 ft 399 kts 167°
2026-04-14 17:01 47.97237 10.26003 22721 ft 390 kts 167°
2026-04-14 17:01 47.94625 10.27019 22451 ft 386 kts 167°
2026-04-14 17:02 47.92031 10.28026 22184 ft 384 kts 167°
2026-04-14 17:02 47.89462 10.29021 21921 ft 377 kts 167°
2026-04-14 17:02 47.86950 10.29995 21660 ft 370 kts 167°
2026-04-14 17:02 47.84502 10.30942 21398 ft 366 kts 167°
2026-04-14 17:03 47.82056 10.31882 20871 ft 361 kts 167°
2026-04-14 17:03 47.79622 10.32815 20365 ft 360 kts 166°
2026-04-14 17:03 47.77206 10.33745 19936 ft 357 kts 167°
2026-04-14 17:03 47.74807 10.34671 19501 ft 355 kts 166°
2026-04-14 17:04 47.72425 10.35588 19072 ft 353 kts 166°
2026-04-14 17:04 47.70054 10.36502 18672 ft 350 kts 166°
2026-04-14 17:04 47.67750 10.37390 18483 ft 333 kts 166°
2026-04-14 17:04 47.65536 10.38240 17936 ft 325 kts 166°
2026-04-14 17:05 47.64095 10.38793 17527 ft 321 kts 166°
2026-04-14 17:05 47.61945 10.39617 16901 ft 317 kts 166°
2026-04-14 17:05 47.59808 10.40435 16466 ft 316 kts 166°
2026-04-14 17:05 47.57681 10.41247 16115 ft 314 kts 166°
2026-04-14 17:06 47.55567 10.42058 15748 ft 313 kts 166°
2026-04-14 17:06 47.53467 10.42863 15412 ft 311 kts 165°
2026-04-14 17:06 47.51372 10.43663 15073 ft 310 kts 165°
2026-04-14 17:06 47.49291 10.44456 14740 ft 308 kts 165°
2026-04-14 17:07 47.47218 10.45251 14405 ft 307 kts 163°
2026-04-14 17:07 47.45302 10.46586 14060 ft 304 kts 142°
2026-04-14 17:07 47.43691 10.48593 13697 ft 301 kts 138°
2026-04-14 17:07 47.42125 10.50621 13047 ft 298 kts 138°
2026-04-14 17:08 47.40574 10.52644 12410 ft 295 kts 138°
2026-04-14 17:08 47.39045 10.54640 11839 ft 292 kts 138°
2026-04-14 17:08 47.37531 10.56612 11375 ft 290 kts 138°
2026-04-14 17:08 47.36044 10.58543 11300 ft 279 kts 138°
2026-04-14 17:09 47.34618 10.60389 11243 ft 267 kts 138°
2026-04-14 17:09 47.33249 10.62158 11172 ft 257 kts 137°
2026-04-14 17:09 47.31942 10.63848 11084 ft 253 kts 138°
2026-04-14 17:09 47.30612 10.65572 10977 ft 256 kts 137°
2026-04-14 17:10 47.29519 10.67605 10863 ft 255 kts 114°
2026-04-14 17:10 47.29112 10.70140 10570 ft 258 kts 89°
2026-04-14 17:10 47.29246 10.72777 10203 ft 260 kts 85°
2026-04-14 17:10 47.29399 10.75432 9820 ft 261 kts 85°
2026-04-14 17:11 47.29548 10.78092 9473 ft 260 kts 86°
2026-04-14 17:11 47.29692 10.80739 9122 ft 259 kts 86°
2026-04-14 17:11 47.29832 10.83378 8767 ft 258 kts 86°
2026-04-14 17:11 47.29969 10.85979 8423 ft 249 kts 85°
2026-04-14 17:12 47.30098 10.88458 8114 ft 237 kts 85°
2026-04-14 17:12 47.30222 10.90847 7785 ft 230 kts 85°
2026-04-14 17:12 47.30340 10.93145 7485 ft 220 kts 85°
2026-04-14 17:12 47.30451 10.95350 7195 ft 211 kts 84°
2026-04-14 17:13 47.30557 10.97448 6923 ft 201 kts 84°
2026-04-14 17:13 47.30643 10.99470 6643 ft 195 kts 86°
2026-04-14 17:13 47.30703 11.01464 6341 ft 194 kts 86°
2026-04-14 17:13 47.30764 11.03449 6041 ft 193 kts 88°
2026-04-14 17:14 47.30770 11.05422 5746 ft 192 kts 89°
2026-04-14 17:14 47.30683 11.07366 5439 ft 193 kts 101°
2026-04-14 17:14 47.30255 11.09229 5136 ft 193 kts 115°
2026-04-14 17:14 47.29621 11.10960 4901 ft 192 kts 122°
2026-04-14 17:15 47.28945 11.12650 4682 ft 191 kts 116°
2026-04-14 17:15 47.28436 11.14448 4621 ft 190 kts 109°
2026-04-14 17:15 47.28022 11.16291 4448 ft 186 kts 107°
2026-04-14 17:15 47.27655 11.18079 4156 ft 180 kts 104°
2026-04-14 17:16 47.27308 11.19914 3977 ft 195 kts 106°
2026-04-14 17:16 47.26908 11.21722 3860 ft 176 kts 106°
2026-04-14 17:16 47.26546 11.23356 3712 ft 160 kts 106°
2026-04-14 17:16 47.26203 11.24884 3370 ft 156 kts 106°
2026-04-14 17:17 47.25887 11.26381 3064 ft 150 kts 104°
2026-04-14 17:17 47.25632 11.27839 2827 ft 146 kts 99°
2026-04-14 17:17 47.25522 11.29294 2565 ft 141 kts 90°
2026-04-14 17:17 47.25623 11.30718 2364 ft 140 kts 80°
2026-04-14 17:18 47.25781 11.32131 2119 ft 138 kts 82°
2026-04-14 17:18 47.25923 11.33489 1926 ft 130 kts 83°
2026-04-14 17:18 47.26042 11.34604 1903 ft 76 kts 80°
2026-04-14 17:18 47.26092 11.35052 1907 ft 31 kts 81°
2026-04-14 17:19 47.26109 11.35211 1905 ft 4 kts 85°
2026-04-14 17:19 47.26098 11.35244 1900 ft 3 kts 136°
2026-04-14 17:19 47.26079 11.35254 1905 ft 3 kts 167°
2026-04-14 17:19 47.26054 11.35260 1895 ft 6 kts 170°
2026-04-14 17:20 47.26013 11.35270 1905 ft 4 kts 172°
2026-04-14 17:20 47.25987 11.35275 1905 ft 3 kts 172°
2026-04-14 17:20 47.25972 11.35278 1905 ft 1 kts 172°
2026-04-14 17:20 47.25953 11.35282 1895 ft 3 kts 171°
2026-04-14 17:21 47.25908 11.35288 1907 ft 5 kts 195°
2026-04-14 17:21 47.25895 11.35256 1899 ft 5 kts 264°
2026-04-14 17:21 47.25894 11.35191 1908 ft 5 kts 262°
2026-04-14 17:21 47.25889 11.35143 1904 ft 4 kts 260°
2026-04-14 17:22 47.25882 11.35111 1904 ft 5 kts 238°
2026-04-14 17:22 47.25856 11.35099 1904 ft 3 kts 174°
2026-04-14 17:22 47.25842 11.35104 1907 ft 2 kts 167°
2026-04-14 17:22 47.25836 11.35106 1899 ft 0 kts 168°
2026-04-14 17:23 47.25835 11.35106 1900 ft 0 kts 168°
2026-04-14 17:23 47.25828 11.35108 1903 ft 0 kts 171°